Regional Weather Roundup
Issued by NWS

Home | Current Version | Previous Version | Text Only | Print | Product List | Glossary On
Versions: 1 2 3 4 5 6 7 8 9 10 11 12 13 14 15 16 17 18 19 20 21 22 23 24 25 26 27 28 29 30 31 32 33 34 35 36 37 38 39 40 41 42 43 44 45 46 47 48 49 50
672
ASUS44 KFWD 020103
RWRTX
NORTH TEXAS HOURLY WEATHER ROUNDUP
NATIONAL WEATHER SERVICE FORT WORTH TX
800 PM CDT SUN MAY 01 2016

NOTE: "FAIR" INDICATES FEW OR NO CLOUDS BELOW 12,000 FEET WITH NO
SIGNIFICANT WEATHER AND/OR OBSTRUCTIONS TO VISIBILITY.

TXZ118-119-020200-
DALLAS/FORT WORTH METROPLEX

CITY           SKY/WX    TMP DP  RH WIND       PRES   REMARKS
DFW AIRPORT    PTCLDY    69  49  48 N12       29.98R
DALLAS LOVE    MOCLDY    71  49  45 N13       29.98R
FTW MEACHAM    PTCLDY    69  50  50 N12G20    29.99R
DAL-EXECUTIVE  MOCLDY    70  48  45 N9        29.97R
FTW-ALLIANCE   PTCLDY    68  51  54 N12       29.99R
FTW-NAS-JRB    CLEAR     70  50  49 N10       30.00R
ARLINGTON      CLOUDY    73  50  44 N17G23    29.98R
GRAND PRAIRIE  CLEAR     72  48  43 N9        29.99R
MESQUITE       MOCLDY    70  52  52 N9        29.97R
LANCASTER      MOCLDY    71  49  45 N8        29.97R
$$

TXZ091>094-102>105-117-120-121-131>134-020200-
NORTH CENTRAL TEXAS

CITY           SKY/WX    TMP DP  RH WIND       PRES   REMARKS
SHRMAN/DENISON CLEAR     61  47  59 N9        30.03R
BRIDGEPORT     CLOUDY    66  50  56 N7        30.05R
DECATUR        PTCLDY    65  47  53 N7        30.03R
DENTON         MOCLDY    66  51  58 N9        30.00R
MCKINNEY       CLEAR     66  53  63 N7        29.99R
ROCKWALL       MOCLDY    68  53  57 N10       29.97R
TERRELL        MOCLDY    70  55  59 N7        29.97R
WAXAHACHIE     PTCLDY    68  53  58 NE5       29.98R
CLEBURNE       MOCLDY    66  55  68 N6        30.00R
GRANBURY       CLOUDY    70  51  50 N7        30.01R
$$

TXZ083>090-098>101-113>116-127>130-139>142-154-155-020200-
WESTERN NORTH TEXAS

CITY           SKY/WX    TMP DP  RH WIND       PRES   REMARKS
WICHITA FALLS  LGT RAIN  55  51  86 N13       30.09R
WF-KICKAPOO    CLOUDY    60  48  65 N15G24    30.09R
VERNON         CLOUDY    58  40  51 N15       30.13R
ABILENE        CLOUDY    60  45  57 N17       30.08R
ABILENE-DYESS  CLOUDY    59  45  60 N16G22    30.08R
BRECKENRIDGE   CLOUDY    63  46  53 N14G21    30.06R
MINERAL WELLS  MOCLDY    66  49  54 N12       30.01R
STEPHENVILLE   MOCLDY    67  47  48 N6        30.03R
COMANCHE       CLOUDY    66  49  53 N9        30.02R
BROWNWOOD      CLOUDY    66  46  48 N6        30.02R
COLEMAN        CLOUDY    65  45  47 N15       30.04R
$$

TXZ143>147-156>162-174-175-020200-
CENTRAL TEXAS

CITY           SKY/WX    TMP DP  RH WIND       PRES   REMARKS
WACO           PTCLDY    68  53  58 N9        29.95R
WACO-MCGREGOR  CLEAR     70  54  56 N7        29.96R
HILLSBORO      MOCLDY    67  53  61 CALM      29.97R
CORSICANA      CLEAR     70  55  59 N6        29.95R
HEARNE         CLEAR     71  60  69 CALM      29.92R
CAMERON        PTCLDY    70  60  70 N6        29.91R
TEMPLE         MOCLDY    69  57  65 N7        29.95R
KILLEEN        CLOUDY    68  56  64 N8        29.95R
KILLEEN-SKYLRK CLEAR     68  56  65 N8        29.95R
FORT HOOD      PTCLDY    68  56  64 N7        29.94R
HAMILTON       CLOUDY    69  50  51 N10       30.00R
$$

TXZ095>097-106>112-122>126-135>138-148>153-164>167-020200-
EAST TEXAS

CITY           SKY/WX    TMP DP  RH WIND       PRES   REMARKS
PARIS          CLEAR     68  48  49 N10       29.95R
SULPHUR SPRNGS PTCLDY    68  57  66 N7        29.97R
MOUNT PLEASANT CLEAR     72  55  54 N3        29.93S
MINEOLA        CLEAR     72  59  64 CALM      29.95R
TYLER          CLEAR     73  58  59 N5        29.92R
LONGVIEW       PTCLDY    75  61  61 N7        29.89R
MARSHALL       CLEAR     73  64  73 N3        29.92R
ATHENS         CLEAR     70  55  60 N7        29.91S
PALESTINE      CLEAR     72  60  65 N5        29.93R
JACKSONVILLE   PTCLDY    73  61  65 N3        29.93R
CENTER         CLOUDY    78  70  74 N5        29.88R
NACOGDOCHES    CLEAR     75  66  73 N3        29.88R
LUFKIN         CLOUDY    78  68  71 NE6       29.87R
$$

SUPPLEMENTAL OBSERVATIONS (CENTRAL)

CITY           SKY/WX    TMP DP  RH WIND       PRES   REMARKS
$$

SUPPLEMENTAL OBSERVATIONS (WEST)

CITY           SKY/WX    TMP DP  RH WIND       PRES   REMARKS
$$

SUPPLEMENTAL OBSERVATIONS (EAST)

CITY           SKY/WX    TMP DP  RH WIND       PRES   REMARKS
$$

SUPPLEMENTAL OBSERVATIONS ARE A COLLECTION OF AUTOMATED INSTRUMENTS
THAT ARE MAINTAINED BY A VARIETY OF FEDERAL AND STATE AGENCIES.
CERTAIN ELEMENTS...SUCH AS HUMIDITY VALUES AND SUSTAINED WIND
SPEEDS...MAY BE APPROXIMATED.





USA.gov is the U.S. government's official web portal to all federal, state and local government web resources and services.